| time (UTC) | temp C | wind direction | speed KPH | gust KPH | rain 1hr cm | rain 24hr cm | rain mn cm | humidity % | barometer mb |
| 20260906215023 | 20 | 79 | 3.2 | 11.3 | 0.00 | 0.00 | 0.00 | 70 | 1018.7 |
| 20260906214543 | 20 | 17 | 1.6 | 12.9 | 0.00 | 0.00 | 0.00 | 71 | 1018.8 |
| 20260906214024 | 20 | 57 | 3.2 | 12.9 | 0.00 | 0.00 | 0.00 | 71 | 1018.6 |
| 20260906213522 | 20 | 19 | 3.2 | 14.5 | 0.00 | 0.00 | 0.00 | 72 | 1018.6 |
| 20260906213055 | 20 | 78 | 4.8 | 14.5 | 0.00 | 0.00 | 0.00 | 71 | 1018.6 |
| 20260906212524 | 20 | 5 | 3.2 | 14.5 | 0.00 | 0.00 | 0.00 | 70 | 1018.6 |
| 20260906212025 | 20 | 66 | 3.2 | 14.5 | 0.00 | 0.00 | 0.00 | 71 | 1018.7 |
| 20260906211549 | 20 | 12 | 4.8 | 14.5 | 0.00 | 0.00 | 0.00 | 70 | 1018.6 |
| 20260906211026 | 20 | 101 | 3.2 | 16.1 | 0.00 | 0.00 | 0.00 | 71 | 1018.6 |
| 20260906210524 | 20 | 32 | 1.6 | 16.1 | 0.00 | 0.00 | 0.00 | 72 | 1018.7 |
| 20260906210050 | 20 | 350 | 3.2 | 20.9 | 0.00 | 0.00 | 0.00 | 73 | 1018.7 |
| 20260906205525 | 20 | 20 | 4.8 | 20.9 | 0.00 | 0.00 | 0.00 | 72 | 1018.7 |
| 20260906205028 | 20 | 77 | 1.6 | 16.1 | 0.00 | 0.00 | 0.00 | 73 | 1018.7 |
| 20260906204601 | 20 | 348 | 6.4 | 19.3 | 0.00 | 0.00 | 0.00 | 72 | 1018.7 |
| 20260906204021 | 20 | 75 | 4.8 | 19.3 | 0.00 | 0.00 | 0.00 | 72 | 1018.6 |
| 20260906203525 | 20 | 49 | 3.2 | 12.9 | 0.00 | 0.00 | 0.00 | 73 | 1018.6 |
| 20260906203059 | 20 | 48 | 4.8 | 19.3 | 0.00 | 0.00 | 0.00 | 72 | 1018.6 |
| 20260906202524 | 20 | 55 | 8.0 | 19.3 | 0.00 | 0.00 | 0.00 | 72 | 1018.5 |
| 20260906202030 | 20 | 49 | 4.8 | 14.5 | 0.00 | 0.00 | 0.00 | 73 | 1018.4 |
| 20260906201548 | 20 | 84 | 4.8 | 14.5 | 0.00 | 0.00 | 0.00 | 72 | 1018.5 |
| 20260906201027 | 20 | 78 | 6.4 | 14.5 | 0.00 | 0.00 | 0.00 | 73 | 1018.4 |
| 20260906200524 | 20 | 328 | 4.8 | 14.5 | 0.00 | 0.00 | 0.00 | 72 | 1018.6 |
| 20260906200121 | 20 | 71 | 3.2 | 19.3 | 0.00 | 0.00 | 0.00 | 74 | 1018.7 |
| 20260906195523 | 20 | 41 | 4.8 | 19.3 | 0.00 | 0.00 | 0.00 | 73 | 1018.7 |
| 20260906195023 | 20 | 44 | 4.8 | 17.7 | 0.00 | 0.00 | 0.00 | 72 | 1018.6 |
| 20260906194543 | 20 | 340 | 4.8 | 17.7 | 0.00 | 0.00 | 0.00 | 73 | 1018.5 |
| 20260906194025 | 20 | 17 | 6.4 | 17.7 | 0.00 | 0.00 | 0.00 | 73 | 1018.5 |
| 20260906193524 | 20 | 51 | 4.8 | 14.5 | 0.00 | 0.00 | 0.00 | 74 | 1018.6 |
| 20260906193059 | 20 | 5 | 4.8 | 16.1 | 0.00 | 0.00 | 0.00 | 74 | 1018.5 |
| 20260906192523 | 20 | 338 | 4.8 | 16.1 | 0.00 | 0.00 | 0.00 | 74 | 1018.4 |
| 20260906192025 | 20 | 69 | 3.2 | 16.1 | 0.00 | 0.00 | 0.00 | 74 | 1018.4 |
| 20260906191547 | 20 | 49 | 6.4 | 16.1 | 0.00 | 0.00 | 0.00 | 73 | 1018.4 |
| 20260906191024 | 20 | 53 | 3.2 | 14.5 | 0.00 | 0.00 | 0.00 | 73 | 1018.3 |
| 20260906190523 | 20 | 67 | 3.2 | 12.9 | 0.00 | 0.00 | 0.00 | 74 | 1018.4 |
| 20260906190054 | 20 | 82 | 3.2 | 17.7 | 0.00 | 0.00 | 0.00 | 73 | 1018.4 |
| 20260906185525 | 20 | 79 | 6.4 | 17.7 | 0.00 | 0.00 | 0.00 | 74 | 1018.5 |
| 20260906185026 | 20 | 49 | 4.8 | 17.7 | 0.00 | 0.00 | 0.00 | 75 | 1018.6 |
| 20260906184554 | 20 | 59 | 4.8 | 17.7 | 0.00 | 0.00 | 0.00 | 73 | 1018.6 |
| 20260906184027 | 20 | 74 | 6.4 | 16.1 | 0.00 | 0.00 | 0.00 | 75 | 1018.7 |
| 20260906183526 | 20 | 64 | 6.4 | 16.1 | 0.00 | 0.00 | 0.00 | 74 | 1018.8 |
| 20260906183049 | 20 | 65 | 4.8 | 16.1 | 0.00 | 0.00 | 0.00 | 74 | 1018.7 |
| 20260906182527 | 20 | 40 | 3.2 | 16.1 | 0.00 | 0.00 | 0.00 | 75 | 1018.7 |
| 20260906182024 | 20 | 24 | 6.4 | 22.5 | 0.00 | 0.00 | 0.00 | 75 | 1018.7 |
| 20260906181553 | 20 | 360 | 3.2 | 22.5 | 0.00 | 0.00 | 0.00 | 76 | 1018.6 |
| 20260906181026 | 20 | 15 | 4.8 | 14.5 | 0.00 | 0.00 | 0.00 | 76 | 1018.7 |
| 20260906180525 | 19 | 44 | 3.2 | 14.5 | 0.00 | 0.00 | 0.00 | 76 | 1018.9 |
| 20260906180105 | 19 | 54 | 3.2 | 17.7 | 0.00 | 0.00 | 0.00 | 76 | 1018.8 |
| 20260906175526 | 19 | 17 | 4.8 | 17.7 | 0.00 | 0.00 | 0.00 | 75 | 1018.9 |
| 20260906175024 | 19 | 74 | 4.8 | 16.1 | 0.00 | 0.00 | 0.00 | 76 | 1018.8 |
| 20260906174551 | 19 | 20 | 4.8 | 16.1 | 0.00 | 0.00 | 0.00 | 76 | 1018.9 |
| 20260906174024 | 19 | 65 | 3.2 | 12.9 | 0.00 | 0.00 | 0.00 | 77 | 1019.0 |
| 20260906173524 | 19 | 82 | 3.2 | 12.9 | 0.00 | 0.00 | 0.00 | 79 | 1019.1 |
| 20260906173048 | 19 | 341 | 4.8 | 12.9 | 0.00 | 0.00 | 0.00 | 77 | 1019.1 |
| 20260906172522 | 19 | 0 | 4.8 | 12.9 | 0.00 | 0.00 | 0.00 | 78 | 1019.1 |
| 20260906172022 | 19 | 67 | 4.8 | 17.7 | 0.00 | 0.00 | 0.00 | 79 | 1019.1 |
| 20260906171550 | 18 | 49 | 3.2 | 17.7 | 0.00 | 0.00 | 0.00 | 79 | 1019.0 |
| 20260906171025 | 18 | 16 | 4.8 | 12.9 | 0.00 | 0.00 | 0.00 | 79 | 1019.0 |
| 20260906170526 | 18 | 21 | 4.8 | 19.3 | 0.00 | 0.00 | 0.00 | 78 | 1018.9 |
| 20260906170107 | 18 | 43 | 3.2 | 19.3 | 0.00 | 0.00 | 0.00 | 79 | 1018.9 |
| 20260906165527 | 18 | 55 | 4.8 | 19.3 | 0.00 | 0.00 | 0.00 | 80 | 1018.9 |
| 20260906165024 | 18 | 28 | 4.8 | 14.5 | 0.00 | 0.00 | 0.00 | 79 | 1018.9 |
| 20260906164552 | 18 | 65 | 4.8 | 14.5 | 0.00 | 0.00 | 0.00 | 80 | 1018.8 |
| 20260906164028 | 18 | 80 | 4.8 | 14.5 | 0.00 | 0.00 | 0.00 | 80 | 1018.9 |
| 20260906163524 | 18 | 62 | 3.2 | 14.5 | 0.00 | 0.00 | 0.00 | 81 | 1019.0 |
| 20260906163056 | 18 | 38 | 6.4 | 14.5 | 0.00 | 0.00 | 0.00 | 80 | 1018.9 |
| 20260906162528 | 18 | 80 | 4.8 | 14.5 | 0.00 | 0.00 | 0.00 | 80 | 1018.9 |
| 20260906162026 | 18 | 51 | 4.8 | 16.1 | 0.00 | 0.00 | 0.00 | 79 | 1019.0 |
| 20260906161553 | 18 | 342 | 3.2 | 16.1 | 0.00 | 0.00 | 0.00 | 81 | 1019.0 |
| 20260906161025 | 18 | 83 | 4.8 | 16.1 | 0.00 | 0.00 | 0.00 | 80 | 1019.1 |
| 20260906160525 | 18 | 352 | 4.8 | 19.3 | 0.00 | 0.00 | 0.00 | 82 | 1019.0 |
| 20260906160055 | 18 | 58 | 6.4 | 19.3 | 0.00 | 0.00 | 0.00 | 80 | 1019.0 |
| 20260906155527 | 18 | 82 | 4.8 | 17.7 | 0.00 | 0.00 | 0.00 | 81 | 1019.0 |
| 20260906155029 | 18 | 9 | 4.8 | 17.7 | 0.00 | 0.00 | 0.00 | 80 | 1018.9 |
| 20260906154548 | 18 | 360 | 4.8 | 19.3 | 0.00 | 0.00 | 0.00 | 81 | 1019.0 |
| 20260906154024 | 18 | 38 | 4.8 | 19.3 | 0.00 | 0.00 | 0.00 | 81 | 1018.8 |
| 20260906153526 | 18 | 71 | 8.0 | 19.3 | 0.00 | 0.00 | 0.00 | 80 | 1018.8 |
| 20260906153043 | 18 | 36 | 4.8 | 12.9 | 0.00 | 0.00 | 0.00 | 80 | 1018.8 |
| 20260906152525 | 18 | 72 | 3.2 | 17.7 | 0.00 | 0.00 | 0.00 | 80 | 1018.9 |
| 20260906152024 | 18 | 37 | 6.4 | 17.7 | 0.00 | 0.00 | 0.00 | 80 | 1018.8 |
| 20260906151552 | 18 | 30 | 4.8 | 14.5 | 0.00 | 0.00 | 0.00 | 80 | 1018.8 |
| 20260906151025 | 18 | 40 | 4.8 | 16.1 | 0.00 | 0.00 | 0.00 | 80 | 1018.8 |
| 20260906150525 | 18 | 94 | 4.8 | 16.1 | 0.00 | 0.00 | 0.00 | 81 | 1018.8 |
| 20260906150106 | 18 | 60 | 3.2 | 14.5 | 0.00 | 0.00 | 0.00 | 82 | 1018.9 |
| 20260906145524 | 18 | 67 | 4.8 | 16.1 | 0.00 | 0.00 | 0.00 | 82 | 1018.8 |
| 20260906145024 | 18 | 23 | 6.4 | 16.1 | 0.00 | 0.00 | 0.00 | 81 | 1018.8 |
| 20260906144548 | 18 | 24 | 4.8 | 17.7 | 0.00 | 0.00 | 0.00 | 83 | 1018.9 |
| 20260906144022 | 18 | 38 | 3.2 | 17.7 | 0.00 | 0.00 | 0.00 | 81 | 1018.9 |
| 20260906143526 | 18 | 74 | 3.2 | 16.1 | 0.00 | 0.00 | 0.00 | 82 | 1018.9 |
| 20260906143050 | 18 | 65 | 4.8 | 16.1 | 0.00 | 0.00 | 0.00 | 82 | 1018.8 |
| 20260906142525 | 18 | 51 | 4.8 | 14.5 | 0.00 | 0.00 | 0.00 | 83 | 1018.6 |
| 20260906142025 | 18 | 48 | 3.2 | 16.1 | 0.00 | 0.00 | 0.00 | 82 | 1018.6 |
| 20260906141551 | 18 | 80 | 3.2 | 16.1 | 0.00 | 0.00 | 0.00 | 82 | 1018.6 |
| 20260906141025 | 18 | 60 | 4.8 | 14.5 | 0.00 | 0.00 | 0.00 | 83 | 1018.6 |
| 20260906140525 | 18 | 0 | 1.6 | 12.9 | 0.00 | 0.00 | 0.00 | 83 | 1018.4 |
| 20260906140055 | 18 | 44 | 3.2 | 17.7 | 0.00 | 0.00 | 0.00 | 84 | 1018.3 |
| 20260906135523 | 18 | 0 | 4.8 | 17.7 | 0.00 | 0.00 | 0.00 | 83 | 1018.3 |
| 20260906135023 | 18 | 74 | 4.8 | 14.5 | 0.00 | 0.00 | 0.00 | 83 | 1018.2 |
| 20260906134543 | 18 | 46 | 4.8 | 14.5 | 0.00 | 0.00 | 0.00 | 83 | 1018.2 |
| 20260906134023 | 18 | 54 | 3.2 | 12.9 | 0.00 | 0.00 | 0.00 | 84 | 1018.1 |
| 20260906133528 | 18 | 65 | 3.2 | 12.9 | 0.00 | 0.00 | 0.00 | 84 | 1018.0 |
| 20260906133112 | 18 | 88 | 3.2 | 14.5 | 0.00 | 0.00 | 0.00 | 83 | 1018.0 |
| 20260906132525 | 18 | 62 | 3.2 | 14.5 | 0.00 | 0.00 | 0.00 | 83 | 1018.0 |
| 20260906132025 | 18 | 352 | 3.2 | 14.5 | 0.00 | 0.00 | 0.00 | 83 | 1017.9 |
| 20260906131550 | 18 | 66 | 3.2 | 16.1 | 0.00 | 0.00 | 0.00 | 83 | 1018.0 |
| 20260906131024 | 19 | 82 | 4.8 | 19.3 | 0.00 | 0.00 | 0.00 | 82 | 1018.0 |
| 20260906130524 | 19 | 51 | 6.4 | 19.3 | 0.00 | 0.00 | 0.00 | 83 | 1018.1 |
| 20260906130104 | 19 | 79 | 3.2 | 12.9 | 0.00 | 0.00 | 0.00 | 84 | 1017.9 |
| 20260906125523 | 18 | 71 | 4.8 | 12.9 | 0.00 | 0.00 | 0.00 | 84 | 1017.7 |
| 20260906125023 | 18 | 360 | 3.2 | 14.5 | 0.00 | 0.00 | 0.00 | 84 | 1017.6 |
| 20260906124544 | 18 | 92 | 3.2 | 14.5 | 0.00 | 0.00 | 0.00 | 83 | 1017.6 |
| 20260906124028 | 18 | 62 | 4.8 | 14.5 | 0.00 | 0.00 | 0.00 | 83 | 1017.7 |
| 20260906123523 | 18 | 41 | 3.2 | 14.5 | 0.00 | 0.00 | 0.00 | 84 | 1017.6 |
| 20260906123051 | 18 | 71 | 3.2 | 12.9 | 0.00 | 0.00 | 0.00 | 83 | 1017.6 |
| 20260906122524 | 18 | 63 | 3.2 | 16.1 | 0.00 | 0.00 | 0.00 | 84 | 1017.6 |
| 20260906122021 | 18 | 88 | 4.8 | 16.1 | 0.00 | 0.00 | 0.00 | 85 | 1017.6 |
| 20260906121547 | 18 | 62 | 4.8 | 16.1 | 0.00 | 0.00 | 0.00 | 85 | 1017.4 |
| 20260906121024 | 18 | 61 | 3.2 | 11.3 | 0.00 | 0.00 | 0.00 | 86 | 1017.4 |
| 20260906120524 | 18 | 93 | 3.2 | 16.1 | 0.00 | 0.00 | 0.00 | 86 | 1017.5 |
| 20260906120046 | 18 | 86 | 4.8 | 16.1 | 0.00 | 0.00 | 0.00 | 86 | 1017.4 |
| 20260906115524 | 18 | 229 | 4.8 | 16.1 | 0.00 | 0.00 | 0.00 | 86 | 1017.3 |
| 20260906115023 | 18 | 70 | 3.2 | 22.5 | 0.00 | 0.00 | 0.00 | 86 | 1017.2 |
| 20260906114553 | 18 | 74 | 4.8 | 22.5 | 0.00 | 0.00 | 0.00 | 86 | 1017.2 |
| 20260906114023 | 18 | 82 | 4.8 | 22.5 | 0.00 | 0.00 | 0.00 | 86 | 1017.1 |
| 20260906113524 | 18 | 340 | 4.8 | 12.9 | 0.00 | 0.00 | 0.00 | 86 | 1017.0 |
| 20260906113051 | 18 | 23 | 4.8 | 14.5 | 0.00 | 0.00 | 0.00 | 86 | 1017.0 |
| 20260906112524 | 18 | 88 | 4.8 | 14.5 | 0.00 | 0.00 | 0.00 | 86 | 1016.8 |
| 20260906112026 | 18 | 9 | 3.2 | 14.5 | 0.00 | 0.00 | 0.00 | 86 | 1016.8 |
| 20260906111606 | 18 | 67 | 3.2 | 14.5 | 0.00 | 0.00 | 0.00 | 86 | 1016.6 |
| 20260906111024 | 18 | 78 | 4.8 | 14.5 | 0.00 | 0.00 | 0.00 | 87 | 1016.6 |
| 20260906110523 | 18 | 82 | 4.8 | 12.9 | 0.00 | 0.00 | 0.00 | 86 | 1016.6 |
| 20260906110042 | 18 | 65 | 3.2 | 12.9 | 0.00 | 0.00 | 0.00 | 86 | 1016.6 |
| 20260906105525 | 18 | 13 | 1.6 | 12.9 | 0.00 | 0.00 | 0.00 | 86 | 1016.5 |
| 20260906105027 | 18 | 72 | 4.8 | 12.9 | 0.00 | 0.00 | 0.00 | 86 | 1016.4 |
| 20260906104552 | 18 | 62 | 4.8 | 12.9 | 0.00 | 0.00 | 0.00 | 86 | 1016.4 |
| 20260906104024 | 18 | 5 | 4.8 | 11.3 | 0.00 | 0.00 | 0.00 | 86 | 1016.3 |
| 20260906103525 | 18 | 57 | 4.8 | 11.3 | 0.00 | 0.00 | 0.00 | 86 | 1016.2 |
| 20260906103049 | 18 | 54 | 3.2 | 11.3 | 0.00 | 0.00 | 0.00 | 86 | 1016.2 |
| 20260906102528 | 18 | 340 | 3.2 | 16.1 | 0.00 | 0.00 | 0.00 | 86 | 1016.2 |
| 20260906102024 | 18 | 35 | 3.2 | 19.3 | 0.00 | 0.00 | 0.00 | 86 | 1016.0 |
| 20260906101549 | 18 | 80 | 4.8 | 19.3 | 0.00 | 0.00 | 0.00 | 86 | 1015.9 |
| 20260906101024 | 18 | 57 | 3.2 | 11.3 | 0.00 | 0.00 | 0.00 | 86 | 1015.8 |
| 20260906100526 | 18 | 62 | 1.6 | 11.3 | 0.00 | 0.00 | 0.00 | 85 | 1015.8 |
| 20260906100043 | 18 | 30 | 3.2 | 11.3 | 0.00 | 0.00 | 0.00 | 85 | 1015.8 |
| 20260906095531 | 18 | 352 | 3.2 | 9.7 | 0.00 | 0.00 | 0.00 | 85 | 1015.7 |
| 20260906095024 | 18 | 26 | 1.6 | 14.5 | 0.00 | 0.00 | 0.00 | 85 | 1015.7 |
| 20260906094551 | 18 | 28 | 1.6 | 14.5 | 0.00 | 0.00 | 0.00 | 85 | 1015.6 |
| 20260906094024 | 18 | 28 | 3.2 | 14.5 | 0.00 | 0.00 | 0.00 | 85 | 1015.7 |
| 20260906093525 | 18 | 42 | 3.2 | 14.5 | 0.00 | 0.00 | 0.00 | 86 | 1015.6 |
| 20260906093051 | 18 | 352 | 1.6 | 6.4 | 0.00 | 0.00 | 0.00 | 86 | 1015.5 |
| 20260906092524 | 18 | 11 | 1.6 | 9.7 | 0.00 | 0.00 | 0.00 | 86 | 1015.5 |
| 20260906092024 | 18 | 59 | 0.0 | 11.3 | 0.00 | 0.00 | 0.00 | 87 | 1015.3 |
| 20260906091548 | 18 | 82 | 1.6 | 19.3 | 0.00 | 0.00 | 0.00 | 87 | 1015.3 |
| 20260906091024 | 18 | 24 | 4.8 | 19.3 | 0.00 | 0.00 | 0.00 | 87 | 1015.2 |
| 20260906090529 | 18 | 78 | 0.0 | 9.7 | 0.00 | 0.00 | 0.00 | 86 | 1015.0 |
| 20260906090045 | 18 | 44 | 0.0 | 9.7 | 0.00 | 0.00 | 0.00 | 86 | 1014.9 |
| 20260906085523 | 18 | 60 | 1.6 | 9.7 | 0.00 | 0.00 | 0.00 | 87 | 1014.8 |
| 20260906085024 | 18 | 66 | 1.6 | 6.4 | 0.00 | 0.00 | 0.00 | 88 | 1014.9 |
| 20260906084552 | 18 | 55 | 1.6 | 8.0 | 0.00 | 0.00 | 0.00 | 90 | 1015.0 |
| 20260906084027 | 18 | 77 | 1.6 | 8.0 | 0.00 | 0.00 | 0.00 | 92 | 1014.8 |
| 20260906083524 | 17 | 61 | 1.6 | 8.0 | 0.00 | 0.00 | 0.00 | 94 | 1014.9 |
| 20260906083051 | 17 | 0 | 0.0 | 6.4 | 0.00 | 0.00 | 0.00 | 95 | 1014.9 |
| 20260906082524 | 16 | 22 | 0.0 | 4.8 | 0.00 | 0.00 | 0.00 | 95 | 1014.7 |
| 20260906082023 | 16 | 19 | 0.0 | 4.8 | 0.00 | 0.00 | 0.00 | 94 | 1014.8 |
| 20260906081546 | 16 | 0 | 0.0 | 0.0 | 0.00 | 0.00 | 0.00 | 94 | 1014.7 |
| 20260906081023 | 16 | 0 | 0.0 | 0.0 | 0.00 | 0.00 | 0.00 | 93 | 1014.6 |
| 20260906080526 | 16 | 0 | 0.0 | 0.0 | 0.00 | 0.00 | 0.00 | 93 | 1014.6 |
| 20260906080046 | 16 | 0 | 0.0 | 0.0 | 0.00 | 0.00 | 0.00 | 93 | 1014.7 |
| 20260906075524 | 16 | 0 | 0.0 | 0.0 | 0.00 | 0.00 | 0.00 | 92 | 1014.6 |
| 20260906075024 | 16 | 0 | 0.0 | 0.0 | 0.00 | 0.00 | 0.00 | 92 | 1014.6 |
| 20260906074551 | 16 | 0 | 0.0 | 0.0 | 0.00 | 0.00 | 0.00 | 92 | 1014.6 |
| 20260906074024 | 16 | 0 | 0.0 | 0.0 | 0.00 | 0.00 | 0.00 | 92 | 1014.5 |
| 20260906073525 | 16 | 0 | 0.0 | 0.0 | 0.00 | 0.00 | 0.00 | 92 | 1014.5 |
| 20260906073054 | 16 | 0 | 0.0 | 0.0 | 0.00 | 0.00 | 0.00 | 92 | 1014.7 |
| 20260906072525 | 16 | 0 | 0.0 | 0.0 | 0.00 | 0.00 | 0.00 | 91 | 1014.6 |
| 20260906072024 | 16 | 0 | 0.0 | 0.0 | 0.00 | 0.00 | 0.00 | 91 | 1014.5 |
| 20260906071551 | 16 | 0 | 0.0 | 0.0 | 0.00 | 0.00 | 0.00 | 91 | 1014.5 |
| 20260906071023 | 16 | 0 | 0.0 | 0.0 | 0.00 | 0.00 | 0.00 | 91 | 1014.6 |
| 20260906070523 | 16 | 0 | 0.0 | 0.0 | 0.00 | 0.00 | 0.00 | 91 | 1014.5 |
| 20260906070042 | 16 | 0 | 0.0 | 0.0 | 0.00 | 0.00 | 0.00 | 90 | 1014.7 |
| 20260906065525 | 16 | 0 | 0.0 | 0.0 | 0.00 | 0.00 | 0.00 | 90 | 1014.8 |
| 20260906065026 | 17 | 0 | 0.0 | 0.0 | 0.00 | 0.00 | 0.00 | 90 | 1014.7 |
| 20260906064552 | 17 | 0 | 0.0 | 0.0 | 0.00 | 0.00 | 0.00 | 90 | 1014.6 |
| 20260906064028 | 17 | 0 | 0.0 | 0.0 | 0.00 | 0.00 | 0.00 | 89 | 1014.6 |
| 20260906063523 | 17 | 0 | 0.0 | 0.0 | 0.00 | 0.00 | 0.00 | 88 | 1014.6 |
| 20260906063041 | 17 | 0 | 0.0 | 0.0 | 0.00 | 0.00 | 0.00 | 88 | 1014.7 |
| 20260906062524 | 17 | 0 | 0.0 | 0.0 | 0.00 | 0.00 | 0.00 | 88 | 1014.8 |
| 20260906062027 | 17 | 0 | 0.0 | 0.0 | 0.00 | 0.00 | 0.00 | 87 | 1014.7 |
| 20260906061552 | 18 | 0 | 0.0 | 4.8 | 0.00 | 0.00 | 0.00 | 86 | 1014.6 |
| 20260906061024 | 18 | 0 | 0.0 | 4.8 | 0.00 | 0.00 | 0.00 | 85 | 1014.7 |
| 20260906060524 | 18 | 15 | 0.0 | 4.8 | 0.00 | 0.00 | 0.00 | 84 | 1014.6 |
| 20260906060048 | 18 | 0 | 0.0 | 0.0 | 0.00 | 0.00 | 0.00 | 84 | 1014.8 |
| 20260906055524 | 19 | 0 | 0.0 | 1.6 | 0.00 | 0.00 | 0.00 | 82 | 1014.9 |
| 20260906055024 | 19 | 0 | 0.0 | 3.2 | 0.00 | 0.00 | 0.00 | 82 | 1014.8 |
| 20260906054559 | 20 | 0 | 0.0 | 4.8 | 0.00 | 0.00 | 0.00 | 81 | 1014.8 |
| 20260906054024 | 20 | 99 | 0.0 | 4.8 | 0.00 | 0.00 | 0.00 | 80 | 1014.8 |
| 20260906053524 | 20 | 0 | 0.0 | 4.8 | 0.00 | 0.00 | 0.00 | 80 | 1014.8 |
| 20260906053042 | 20 | 0 | 0.0 | 4.8 | 0.00 | 0.00 | 0.00 | 81 | 1014.8 |
| 20260906052524 | 20 | 0 | 0.0 | 8.0 | 0.00 | 0.00 | 0.00 | 81 | 1014.9 |
| 20260906052025 | 20 | 344 | 1.6 | 8.0 | 0.00 | 0.00 | 0.00 | 81 | 1014.9 |
| 20260906051608 | 20 | 86 | 0.0 | 4.8 | 0.00 | 0.00 | 0.00 | 81 | 1014.8 |
| 20260906051024 | 20 | 0 | 0.0 | 6.4 | 0.00 | 0.00 | 0.00 | 82 | 1014.6 |
| 20260906050525 | 20 | 21 | 1.6 | 6.4 | 0.00 | 0.00 | 0.00 | 82 | 1014.7 |
| 20260906050047 | 20 | 352 | 1.6 | 6.4 | 0.00 | 0.00 | 0.00 | 82 | 1014.6 |
| 20260906045525 | 20 | 35 | 1.6 | 9.7 | 0.00 | 0.00 | 0.00 | 82 | 1014.6 |
| 20260906045023 | 20 | 348 | 0.0 | 11.3 | 0.00 | 0.00 | 0.00 | 82 | 1014.5 |
| 20260906044552 | 20 | 348 | 3.2 | 12.9 | 0.00 | 0.00 | 0.00 | 82 | 1014.5 |
| 20260906044026 | 20 | 16 | 1.6 | 12.9 | 0.00 | 0.00 | 0.00 | 82 | 1014.6 |
| 20260906043526 | 20 | 87 | 1.6 | 6.4 | 0.00 | 0.00 | 0.00 | 83 | 1014.6 |
| 20260906043049 | 20 | 91 | 0.0 | 3.2 | 0.00 | 0.00 | 0.00 | 83 | 1014.6 |
| 20260906042526 | 20 | 0 | 0.0 | 3.2 | 0.00 | 0.00 | 0.00 | 83 | 1014.7 |
| 20260906042046 | 20 | 68 | 0.0 | 6.4 | 0.00 | 0.00 | 0.00 | 83 | 1014.6 |
| 20260906041551 | 20 | 69 | 1.6 | 6.4 | 0.00 | 0.00 | 0.00 | 82 | 1014.6 |
| 20260906041027 | 20 | 0 | 1.6 | 6.4 | 0.00 | 0.00 | 0.00 | 81 | 1014.6 |
| 20260906040524 | 20 | 59 | 1.6 | 9.7 | 0.00 | 0.00 | 0.00 | 81 | 1014.6 |
| 20260906040123 | 20 | 69 | 3.2 | 9.7 | 0.00 | 0.00 | 0.00 | 80 | 1014.6 |
| 20260906035522 | 20 | 80 | 3.2 | 9.7 | 0.00 | 0.00 | 0.00 | 80 | 1014.6 |
| 20260906035022 | 20 | 11 | 1.6 | 12.9 | 0.00 | 0.00 | 0.00 | 81 | 1014.6 |
| 20260906034604 | 20 | 342 | 4.8 | 12.9 | 0.00 | 0.00 | 0.00 | 81 | 1014.6 |
| 20260906034025 | 20 | 60 | 3.2 | 9.7 | 0.00 | 0.00 | 0.00 | 81 | 1014.6 |
| 20260906033524 | 20 | 55 | 3.2 | 14.5 | 0.00 | 0.00 | 0.00 | 82 | 1014.6 |
| 20260906033103 | 20 | 344 | 3.2 | 19.3 | 0.00 | 0.00 | 0.00 | 81 | 1014.6 |
| 20260906032523 | 20 | 9 | 3.2 | 19.3 | 0.00 | 0.00 | 0.00 | 81 | 1014.6 |
| 20260906032024 | 20 | 29 | 3.2 | 19.3 | 0.00 | 0.00 | 0.00 | 82 | 1014.5 |
| 20260906031545 | 20 | 344 | 3.2 | 14.5 | 0.00 | 0.00 | 0.00 | 82 | 1014.4 |
| 20260906031025 | 20 | 352 | 3.2 | 14.5 | 0.00 | 0.00 | 0.00 | 83 | 1014.5 |
| 20260906030525 | 20 | 344 | 3.2 | 12.9 | 0.00 | 0.00 | 0.00 | 83 | 1014.3 |
| 20260906030054 | 20 | 9 | 3.2 | 8.0 | 0.00 | 0.00 | 0.00 | 84 | 1014.2 |
| 20260906025524 | 20 | 327 | 3.2 | 9.7 | 0.00 | 0.00 | 0.00 | 84 | 1014.1 |
| 20260906025024 | 20 | 24 | 3.2 | 9.7 | 0.00 | 0.00 | 0.00 | 84 | 1014.2 |
| 20260906024600 | 20 | 9 | 3.2 | 9.7 | 0.00 | 0.00 | 0.00 | 85 | 1014.2 |
| 20260906024027 | 20 | 344 | 3.2 | 14.5 | 0.00 | 0.00 | 0.00 | 85 | 1014.2 |
| 20260906023526 | 20 | 17 | 3.2 | 14.5 | 0.00 | 0.00 | 0.00 | 86 | 1014.2 |
| 20260906023045 | 20 | 352 | 3.2 | 8.0 | 0.00 | 0.00 | 0.00 | 86 | 1014.2 |
| 20260906022523 | 19 | 329 | 3.2 | 6.4 | 0.00 | 0.00 | 0.00 | 87 | 1014.1 |
| 20260906022025 | 19 | 338 | 0.0 | 3.2 | 0.00 | 0.00 | 0.00 | 86 | 1014.1 |
| 20260906021542 | 19 | 0 | 0.0 | 3.2 | 0.00 | 0.00 | 0.00 | 86 | 1014.2 |
| 20260906021023 | 19 | 0 | 0.0 | 4.8 | 0.00 | 0.00 | 0.00 | 86 | 1014.2 |
| 20260906020525 | 20 | 0 | 0.0 | 6.4 | 0.00 | 0.00 | 0.00 | 86 | 1014.2 |
| 20260906020050 | 19 | 351 | 1.6 | 6.4 | 0.00 | 0.00 | 0.00 | 86 | 1014.2 |
| 20260906015524 | 19 | 14 | 1.6 | 6.4 | 0.00 | 0.00 | 0.00 | 86 | 1014.3 |
| 20260906015024 | 19 | 0 | 0.0 | 4.8 | 0.00 | 0.00 | 0.00 | 86 | 1014.3 |
| 20260906014548 | 19 | 360 | 0.0 | 4.8 | 0.00 | 0.00 | 0.00 | 85 | 1014.2 |
| 20260906014025 | 20 | 0 | 0.0 | 6.4 | 0.00 | 0.00 | 0.00 | 85 | 1014.2 |
| 20260906013522 | 20 | 15 | 1.6 | 6.4 | 0.00 | 0.00 | 0.00 | 85 | 1014.0 |
| 20260906013042 | 20 | 341 | 1.6 | 8.0 | 0.00 | 0.00 | 0.00 | 85 | 1014.1 |
| 20260906012527 | 20 | 343 | 0.0 | 8.0 | 0.00 | 0.00 | 0.00 | 85 | 1014.1 |
| 20260906012026 | 19 | 5 | 1.6 | 6.4 | 0.00 | 0.00 | 0.00 | 86 | 1014.2 |
| 20260906011550 | 19 | 313 | 0.0 | 4.8 | 0.00 | 0.00 | 0.00 | 86 | 1014.1 |
| 20260906011028 | 19 | 322 | 0.0 | 4.8 | 0.00 | 0.00 | 0.00 | 87 | 1014.2 |
| 20260906010525 | 19 | 0 | 0.0 | 0.0 | 0.00 | 0.00 | 0.00 | 87 | 1014.2 |
| 20260906010052 | 19 | 0 | 0.0 | 0.0 | 0.00 | 0.00 | 0.00 | 87 | 1014.2 |
| 20260906005525 | 19 | 0 | 0.0 | 1.6 | 0.00 | 0.00 | 0.00 | 87 | 1014.1 |
| 20260906005025 | 18 | 0 | 0.0 | 3.2 | 0.00 | 0.00 | 0.00 | 88 | 1014.1 |
| 20260906004549 | 18 | 0 | 0.0 | 3.2 | 0.00 | 0.00 | 0.00 | 88 | 1014.0 |
| 20260906004029 | 18 | 0 | 0.0 | 3.2 | 0.00 | 0.00 | 0.00 | 88 | 1013.9 |
| 20260906003524 | 18 | 0 | 0.0 | 3.2 | 0.00 | 0.00 | 0.00 | 88 | 1014.1 |
| 20260906003054 | 18 | 0 | 0.0 | 4.8 | 0.00 | 0.00 | 0.00 | 88 | 1014.0 |
| 20260906002525 | 19 | 0 | 0.0 | 4.8 | 0.00 | 0.00 | 0.00 | 87 | 1014.1 |
| 20260906002025 | 19 | 302 | 0.0 | 4.8 | 0.00 | 0.00 | 0.00 | 87 | 1014.2 |
| 20260906001549 | 18 | 336 | 0.0 | 4.8 | 0.00 | 0.00 | 0.00 | 87 | 1014.1 |
| 20260906001025 | 18 | 336 | 0.0 | 4.8 | 0.00 | 0.00 | 0.00 | 87 | 1014.2 |
| 20260906000525 | 18 | 0 | 0.0 | 0.0 | 0.00 | 0.00 | 0.00 | 87 | 1014.1 |
| 20260906000051 | 18 | 0 | 0.0 | 0.0 | 0.00 | 0.00 | 0.00 | 87 | 1014.2 |
| 20260905235524 | 19 | 0 | 0.0 | 0.0 | 0.00 | 0.00 | 0.00 | 86 | 1014.2 |
| 20260905235024 | 19 | 0 | 0.0 | 0.0 | 0.00 | 0.00 | 0.00 | 87 | 1014.1 |
| 20260905234548 | 19 | 0 | 0.0 | 0.0 | 0.00 | 0.00 | 0.00 | 86 | 1014.1 |
| 20260905234023 | 19 | 0 | 0.0 | 0.0 | 0.00 | 0.00 | 0.00 | 86 | 1014.0 |
| 20260905233526 | 19 | 0 | 0.0 | 0.0 | 0.00 | 0.00 | 0.00 | 85 | 1014.0 |
| 20260905233058 | 19 | 0 | 0.0 | 0.0 | 0.00 | 0.00 | 0.00 | 85 | 1014.0 |
| 20260905232524 | 19 | 0 | 0.0 | 0.0 | 0.00 | 0.00 | 0.00 | 85 | 1013.9 |
| 20260905232024 | 20 | 0 | 0.0 | 0.0 | 0.00 | 0.00 | 0.00 | 85 | 1013.9 |
| 20260905231548 | 20 | 0 | 0.0 | 0.0 | 0.00 | 0.00 | 0.00 | 85 | 1013.9 |
| 20260905231024 | 20 | 0 | 0.0 | 0.0 | 0.00 | 0.00 | 0.00 | 84 | 1014.0 |
| 20260905230524 | 20 | 0 | 0.0 | 0.0 | 0.00 | 0.00 | 0.00 | 84 | 1014.1 |
| 20260905230042 | 20 | 0 | 0.0 | 0.0 | 0.00 | 0.00 | 0.00 | 84 | 1014.1 |
| 20260905225523 | 20 | 0 | 0.0 | 0.0 | 0.00 | 0.00 | 0.00 | 83 | 1014.2 |
| 20260905225023 | 20 | 0 | 0.0 | 0.0 | 0.00 | 0.00 | 0.00 | 83 | 1014.1 |
| 20260905224611 | 20 | 0 | 0.0 | 0.0 | 0.00 | 0.00 | 0.00 | 82 | 1014.2 |
| 20260905224025 | 20 | 0 | 0.0 | 6.4 | 0.00 | 0.00 | 0.00 | 82 | 1014.2 |
| 20260905223525 | 20 | 0 | 0.0 | 11.3 | 0.00 | 0.00 | 0.00 | 81 | 1014.2 |
| 20260905223055 | 20 | 10 | 3.2 | 11.3 | 0.00 | 0.00 | 0.00 | 81 | 1014.2 |
| 20260905222524 | 21 | 0 | 0.0 | 9.7 | 0.00 | 0.00 | 0.00 | 80 | 1014.1 |
| 20260905222023 | 21 | 10 | 3.2 | 12.9 | 0.00 | 0.00 | 0.00 | 80 | 1013.9 |
| 20260905221546 | 21 | 5 | 4.8 | 12.9 | 0.00 | 0.00 | 0.00 | 81 | 1014.0 |
| 20260905221055 | 20 | 342 | 1.6 | 11.3 | 0.00 | 0.00 | 0.00 | 82 | 1013.9 |
| 20260905220525 | 20 | 331 | 3.2 | 12.9 | 0.00 | 0.00 | 0.00 | 81 | 1014.0 |
| 20260905220051 | 20 | 348 | 4.8 | 12.9 | 0.00 | 0.00 | 0.00 | 81 | 1014.1 |
| 20260905215526 | 20 | 338 | 4.8 | 12.9 | 0.00 | 0.00 | 0.00 | 80 | 1014.1 |